[Iaude] MPEC T97: 2016 TL18 [a=1.20,e=0.66,i=11.0,H=21.6]

mpec at si.edu mpec at si.edu
Sun Oct 9 10:31:44 EDT 2016


M.P.E.C. 2016-T97                                Issued 2016 Oct.  9, 14:27 UT
 
     The Minor Planet Electronic Circulars contain information on unusual
         minor planets and routine data on comets.  They are published
    on behalf of Division F of the International Astronomical Union by the
          Minor Planet Center, Smithsonian Astrophysical Observatory,
                          Cambridge, MA 02138, U.S.A.

             Prepared using the Tamkin Foundation Computer Network

                              MPC at CFA.HARVARD.EDU
            URL http://www.minorplanetcenter.net/    ISSN 1523-6714


                                   2016 TL18
 
Observations:
     K16T18L* C2016 10 06.56282 04 26 09.185-13 28 50.37         20.5 wLET097F51
     K16T18L  C2016 10 06.57532 04 26 00.892-13 28 40.93         20.3 wLET097F51
     K16T18L  C2016 10 06.58788 04 25 52.531-13 28 30.97         20.5 wLET097F51
     K16T18L  C2016 10 06.60044 04 25 44.201-13 28 21.30         20.4 wLET097F51
     K16T18L KC2016 10 07.33111404 17 54.53 -13 17 51.7          20.0 RtET097W86
     K16T18L KC2016 10 07.33593304 17 51.36 -13 17 47.7          20.1 RtET097W86
     K16T18L KC2016 10 07.34007004 17 48.66 -13 17 44.1          19.8 RtET097W86
     K16T18L _C2016 10 07.54122604 15 41.078-13 15 23.04         20.1 RUET097568
     K16T18L _C2016 10 07.54330204 15 39.726-13 15 21.27         20.1 RUET097568
     K16T18L _C2016 10 07.54704404 15 37.287-13 15 18.00         20.1 RUET097568
     K16T18L HC2016 10 08.49919 04 05 38.07 -13 00 49.7                oET097691
     K16T18L HC2016 10 08.50546 04 05 34.15 -13 00 43.5                oET097691
     K16T18L HC2016 10 08.51181 04 05 30.10 -13 00 37.9                oET097691
     K16T18L  C2016 10 09.44456 03 55 59.59 -12 45 03.7          20.1 RoET097926
     K16T18L  C2016 10 09.44727 03 55 57.93 -12 45 01.1          20.0 RoET097926
     K16T18L  C2016 10 09.44999 03 55 56.23 -12 44 58.5          20.1 RoET097926
 
Observer details:
568 Mauna Kea.  Observers R. J. Wainscoat, L. Wells.  Measurers M. Micheli,
    R. J. Wainscoat.  3.6-m Canada-France-Hawaii Telescope + CCD.
691 Steward Observatory, Kitt Peak.  Observer J. V. Scotti.  0.9-m f/3
    reflector + CCD.
926 Tenagra II Observatory.  Observers M. Schwartz, P. R. Holvorcem.  Measurer
    M. Schwartz.  0.81-m f/7 Ritchey-Chretien + CCD.
F51 Pan-STARRS 1, Haleakala.  Observers B. Gibson, T. Goggia, S. Kahale,
    A. Schultz, M. Willman.  Measurers K. Chambers, S. Chastel, L. Denneau,
    H. Flewelling, M. Huber, E. Lilly, E. Magnier, R. Wainscoat, C. Waters,
    R. Weryk.  1.8-m Ritchey-Chretien + CCD.
W86 Cerro Tololo-LCOGT B.  Observers T. Lister, S. Greenstreet, E. Gomez.
    Measurer T. Lister.  1.0-m f/8 Ritchey-Chretien + CCD.
 
Orbital elements:
2016 TL18                                                Earth MOID = 0.1313 AU
Epoch 2016 July 31.0 TT = JDT 2457600.5                 MPC
M 356.94572              (2000.0)            P               Q
n   0.74805840     Peri.  197.00876     -0.30719550     +0.93870609
a   1.2018374      Node    55.36495     -0.84950872     -0.19642286
e   0.6596796      Incl.   10.95795     -0.42891242     -0.28328242
P   1.32           H   21.6           G   0.15           U   8
Residuals in seconds of arc
161006 F51  0.1-  0.1+    161007 W86  0.4-  0.1-    161008 691  0.2+  0.6-
161006 F51  0.2+  0.1-    161007 568  0.2-  0.1+    161009 926  0.2-  0.5+
161006 F51  0.1-  0.1+    161007 568  0.2-  0.1+    161009 926  0.0   0.3+
161006 F51  0.1+  0.1-    161007 568  0.2-  0.1+    161009 926  0.2-  0.0
161007 W86  0.2-  0.0     161008 691  0.1-  0.0
161007 W86  0.5-  0.1-    161008 691  0.6+  0.0

Ephemeris:
2016 TL18                a,e,i = 1.20, 0.66, 11                  q = 0.4090
Date    TT    R. A. (2000) Decl.     Delta      r     Elong.  Phase     V
2016 09 09    08 47 27.6 -09 36 10   0.2949  0.7983    38.6   128.1    24.0
...
2016 09 24    06 43 45.3 -13 36 27   0.2216  0.9901    80.3    87.0    21.4
...
2016 10 02    05 16 54.5 -14 07 15   0.2127  1.0840   107.5    61.7    20.6
...
2016 10 08    04 10 51.3 -13 08 12   0.2244  1.1504   127.8    43.4    20.3
2016 10 09    04 00 30.8 -12 52 12   0.2281  1.1611   130.9    40.5    20.3
2016 10 10    03 50 27.6 -12 34 51   0.2321  1.1718   134.0    37.8    20.3
...
2016 10 16    02 57 19.2 -10 32 40   0.2658  1.2338   149.8    24.0    20.3
...
2016 10 24    02 06 26.2 -07 41 26   0.3316  1.3117   160.3    14.8    20.6
...
2016 11 08    01 16 38.2 -03 18 27   0.5013  1.4435   148.9    20.7    21.9

A. U. Tomatic                (C) Copyright 2016 MPC           M.P.E.C. 2016-T97




More information about the Iaude mailing list